This is the latest recevied weather packets stored in our database for station/object N4JTC. If no packets are shown the sender has not sent any weather packets the latest 10 day(s).
| Time | Temp. | Humidity | Pressure | Rain* | Wind** | Luminosity | Snow |
|---|---|---|---|---|---|---|---|
| 1778182203 | 26.11° C | 90% | 1014.3 hPa | 0 mm | - | 222 W/m² | - |
| 1778181903 | 26.11° C | 90% | 1014.3 hPa | 0 mm | - | 207 W/m² | - |
| 1778181603 | 26.11° C | 91% | 1014.4 hPa | 0 mm | - | 559 W/m² | - |
| 1778181302 | 26.11° C | 91% | 1014.4 hPa | 0 mm | - | 175 W/m² | - |
| 1778180703 | 26.67° C | 90% | 1014.2 hPa | 1.27 mm | - | 140 W/m² | - |
| 1778180403 | 26.67° C | 88% | 1014.3 hPa | 1.27 mm | - | 180 W/m² | - |
| 1778180103 | 27.22° C | 87% | 1014.5 hPa | 0 mm | - | 119 W/m² | - |
| 1778179503 | 27.22° C | 86% | 1014.7 hPa | 0 mm | - | 242 W/m² | - |
| 1778179203 | 27.78° C | 84% | 1014.6 hPa | 0 mm | - | 223 W/m² | - |
| 1778178903 | 28.33° C | 83% | 1014.9 hPa | 0 mm | - | 493 W/m² | - |
| 1778178303 | 28.33° C | 83% | 1014.8 hPa | 0 mm | - | 925 W/m² | - |
| 1778178003 | 28.33° C | 83% | 1014.6 hPa | 0 mm | - | 885 W/m² | - |
| 1778177703 | 27.78° C | 85% | 1014.9 hPa | 0 mm | - | 934 W/m² | - |
| 1778177403 | 26.67° C | 87% | 1015 hPa | 0 mm | - | 587 W/m² | - |
| 1778177104 | 27.22° C | 86% | 1015 hPa | 0 mm | - | 305 W/m² | - |
| 1778176503 | 27.22° C | 86% | 1015.2 hPa | 0 mm | - | 270 W/m² | - |
| 1778176203 | 27.22° C | 86% | 1015.2 hPa | 0 mm | - | 461 W/m² | - |
| 1778175902 | 27.22° C | 86% | 1015.5 hPa | 0 mm | - | 310 W/m² | - |
| 1778175603 | 27.22° C | 86% | 1015.6 hPa | 0 mm | - | 307 W/m² | - |
| 1778175303 | 27.78° C | 85% | 1015.7 hPa | 0 mm | - | 227 W/m² | - |
| 1778175003 | 27.78° C | 85% | 1015.8 hPa | 0 mm | - | 306 W/m² | - |
| 1778174703 | 27.78° C | 85% | 1015.9 hPa | 0 mm | - | 377 W/m² | - |
| 1778174103 | 27.22° C | 86% | 1015.9 hPa | 0 mm | - | 459 W/m² | - |
| 1778173803 | 27.22° C | 86% | 1016 hPa | 0 mm | - | 322 W/m² | - |
| 1778173502 | 26.67° C | 86% | 1015.8 hPa | 0 mm | - | 439 W/m² | - |
* Rain latest hour (hover to see other rain measurements)
** Current wind speed in m/s (hover to see current wind gust speed)